Preview of NWS' New Version of Forecast
This preview is not operational and should not be used for support decisions.

Regional Weather Roundup (RWR)

Issued by National Weather Service (NWS)

                            
000
ASUS44 KMEG 210500
RWRTN 
TENNESSEE HOURLY STATE WEATHER ROUNDUP
NATIONAL WEATHER SERVICE MEMPHIS TN
1200 AM CDT SAT SEP 21 2019

TNZ002-004-019-021-049-052-054-088>092-210600-
WEST TENNESSEE
  
CITY           SKY/WX    TMP DP  RH WIND       PRES   REMARKS
MEMPHIS INTL   FAIR      77  65  66 S10       30.16S                  
NWS MEMPHIS      N/A     75 N/A N/A MISG        N/A                   
JACKSON        FAIR      70  65  84 S3        30.18S                  
DYERSBURG      FAIR      74  66  76 SE5       30.17S                  
SOMERVILLE     CLEAR     73  64  73 S7        30.16S                  
COVINGTON      CLEAR     73  64  73 S5        30.15F                  
UNION CITY     CLEAR     72  64  78 CALM      30.15S                  
BOLIVAR        CLEAR     70  64  83 CALM      30.17F                  
PARIS          CLEAR     72  64  78 SE6       30.18R                  
HUNTINGDON     CLEAR     70  64  83 CALM      30.18S                  
LEXINGTON      CLEAR     66  64  94 CALM      30.19R                  
SELMER         CLEAR     70  64  83 S5        30.19S                  
SAVANNAH       PTCLDY    68  64  88 SW3       30.19S                  
$$

TNZ008-025-027-028-033-062-065-066-210600-
NORTH MIDDLE TENNESSEE
  
CITY           SKY/WX    TMP DP  RH WIND       PRES   REMARKS
NASHVILLE      FAIR      73  61  65 S3        30.22S                  
DICKSON        CLEAR     73  59  60 S7        30.21R                  
PORTLAND       CLEAR     68  63  83 S5        30.21S                  
CLARKSVILLE    FAIR      71  64  78 SE3       30.19S                  
LEBANON        CLEAR     73  59  60 S7        30.20S                  
SMYRNA         FAIR      70  62  76 S3        30.23S                  
MURFREESBORO   CLEAR     72  59  64 S6        30.21S                  
LIVINGSTON     CLEAR     72  59  64 S5        30.25F                  
CROSSVILLE     FAIR      67  55  65 VRB3      30.31S                  
ROCKWOOD       CLEAR     68  57  68 SW8       30.30S                  
$$

TNZ061-075-076-078-094-096-097-210600-
SOUTH MIDDLE TENNESSEE
  
CITY           SKY/WX    TMP DP  RH WIND       PRES   REMARKS
LAWRENCEBURG   PTCLDY    70  57  64 SE5       30.23R                  
LEWISBURG      CLEAR     66  59  77 CALM      30.22S                  
FAYETTEVILLE   CLEAR     68  57  68 SE6       30.24S                  
TULLAHOMA      CLEAR     64  57  77 CALM      30.25S                  
WINCHESTER     CLEAR     70  55  60 CALM      30.25S                  
MCMINNVILLE    CLEAR     63  59  88 CALM      30.25S                  
COLUMBIA       CLEAR     70  66  88 CALM      30.20S                  
SHELBYVILLE    CLEAR     66  59  77 SE3       30.23F                  
$$

TNZ017-018-042-046-047-210600-
NORTHEAST TENNESSEE
  
CITY           SKY/WX    TMP DP  RH WIND       PRES   REMARKS
TRI CITIES     FAIR      61  59  93 CALM      30.30S                  
ELIZABETHTON   FAIR      64  61  88 CALM      30.31R                  
GREENEVILLE    CLEAR     68  59  73 CALM      30.29S                  
$$

TNZ012-013-036-069-073-074-210600-
CENTRAL EAST TENNESSEE
  
CITY           SKY/WX    TMP DP  RH WIND       PRES   REMARKS
KNOXVILLE      FAIR      70  60  70 SW6       30.26S                  
OAK RIDGE      FAIR      69  61  75 CALM      30.29R                  
DOWNTOWN KNOXV CLEAR     66  66 100 CALM      30.27S                  
GATLINBURG     CLOUDY    70  64  83 CALM      30.26S                  
MORRISTOWN     MOCLDY    68  63  83 CALM      30.27S                  
JACKSBORO      CLEAR     63  61  94 CALM      30.31R                  
$$

TNZ083-085-099-210600-
SOUTHEAST TENNESSEE
  
CITY           SKY/WX    TMP DP  RH WIND       PRES   REMARKS
CHATTANOOGA    FAIR      68  60  75 CALM      30.28S                  
$$

SKY/WX REPORTED AS FAIR MEANS FEW OR NO CLOUDS BELOW
12 THOUSAND FEET.